When you browse on this site, cookies collect data to enhance your experience and personalize the content and advertising you see.
Visit our Privacy Policy to learn more. By continuing to use the site, you agree to this use of cookies and data.
  • In Romania
  • List of Countries
  • For 7 days
  • Water Temperature
  • Weather Map
  • Weather Widgets
  • user-avatar
    Login

    Hourly Weather Sumgayit

    Today, 21 August, Wednesday

    Time Temperature Precipitation Wind Pressure Humidity
    00:00 +25°C° 0 mm 0 mps 740 mmHg 33%
    01:00 +24°C° 0 mm 0 mps 740 mmHg 33%
    02:00 +24°C° 0 mm 0 mps 740 mmHg 34%
    03:00 +23°C° 0 mm 0 mps 739 mmHg 35%
    04:00 +24°C° 0 mm 0 mps 740 mmHg 33%
    05:00 +26°C° 0 mm 1 mps 740 mmHg 31%
    06:00 +27°C° 0 mm 1 mps 740 mmHg 29%
    07:00 +29°C° 0 mm 1 mps 740 mmHg 25%
    08:00 +32°C° 0 mm 1 mps 740 mmHg 21%
    09:00 +34°C° 0 mm 1 mps 740 mmHg 17%
    10:00 +36°C° 0 mm 2 mps 740 mmHg 15%
    11:00 +37°C° 0 mm 3 mps 740 mmHg 14%
    12:00 +38°C° 0 mm 3 mps 740 mmHg 13%
    13:00 +38°C° 0 mm 4 mps 739 mmHg 14%
    14:00 +39°C° 0 mm 5 mps 739 mmHg 15%
    15:00 +39°C° 0 mm 6 mps 739 mmHg 16%
    16:00 +36°C° 0 mm 5 mps 738 mmHg 21%
    17:00 +35°C° 0 mm 4 mps 738 mmHg 25%
    18:00 +33°C° 0 mm 4 mps 737 mmHg 29%
    19:00 +31°C° 0 mm 3 mps 738 mmHg 31%
    20:00 +30°C° 0 mm 2 mps 738 mmHg 33%
    21:00 +29°C° 0 mm 1 mps 738 mmHg 35%
    22:00 +28°C° 0 mm 1 mps 737 mmHg 34%
    23:00 +28°C° 0 mm 1 mps 737 mmHg 33%

    Tomorrow, 22 August, Thursday

    Time Temperature Precipitation Wind Pressure Humidity
    00:00 +27°C° 0 mm 1 mps 737 mmHg 32%
    01:00 +27°C° 0 mm 1 mps 737 mmHg 34%
    02:00 +24°C° 0 mm 0 mps 737 mmHg 36%
    03:00 +23°C° 0 mm 0 mps 737 mmHg 38%
    04:00 +24°C° 0 mm 0 mps 737 mmHg 36%
    05:00 +27°C° 0 mm 1 mps 737 mmHg 33%
    06:00 +27°C° 0 mm 1 mps 737 mmHg 31%
    07:00 +29°C° 0 mm 1 mps 737 mmHg 27%
    08:00 +32°C° 0 mm 1 mps 737 mmHg 23%
    09:00 +35°C° 0 mm 2 mps 737 mmHg 19%
    10:00 +36°C° 0 mm 2 mps 737 mmHg 18%
    11:00 +37°C° 0 mm 3 mps 737 mmHg 17%
    12:00 +38°C° 0 mm 4 mps 737 mmHg 16%
    13:00 +38°C° 0 mm 4 mps 737 mmHg 16%
    14:00 +38°C° 0 mm 4 mps 736 mmHg 15%
    15:00 +38°C° 0 mm 4 mps 736 mmHg 15%
    16:00 +37°C° 0 mm 4 mps 736 mmHg 16%
    17:00 +36°C° 0 mm 3 mps 736 mmHg 17%
    18:00 +35°C° 0 mm 3 mps 736 mmHg 18%
    19:00 +34°C° 0 mm 2 mps 736 mmHg 21%
    20:00 +31°C° 0 mm 1 mps 736 mmHg 24%
    21:00 +30°C° 0 mm 1 mps 737 mmHg 27%
    22:00 +29°C° 0 mm 1 mps 737 mmHg 28%
    23:00 +27°C° 0 mm 0 mps 737 mmHg 29%

    Day after tomorrow, 23 August, Friday

    Time Temperature Precipitation Wind Pressure Humidity
    00:00 +26°C° 0 mm 0 mps 737 mmHg 30%
    01:00 +26°C° 0 mm 0 mps 737 mmHg 31%
    02:00 +27°C° 0 mm 1 mps 737 mmHg 32%
    03:00 +27°C° 0 mm 1 mps 736 mmHg 33%
    04:00 +28°C° 0 mm 1 mps 737 mmHg 32%
    05:00 +28°C° 0 mm 1 mps 737 mmHg 30%
    06:00 +29°C° 0 mm 1 mps 737 mmHg 29%
    07:00 +31°C° 0 mm 2 mps 737 mmHg 26%
    08:00 +34°C° 0 mm 2 mps 737 mmHg 24%
    09:00 +36°C° 0 mm 2 mps 738 mmHg 21%
    10:00 +36°C° 0 mm 3 mps 737 mmHg 21%
    11:00 +37°C° 0 mm 4 mps 737 mmHg 20%
    12:00 +38°C° 0 mm 4 mps 737 mmHg 19%
    13:00 +40°C° 0 mm 5 mps 737 mmHg 18%
    14:00 +40°C° 0 mm 6 mps 737 mmHg 17%
    15:00 +41°C° 0 mm 7 mps 737 mmHg 16%
    16:00 +39°C° 0 mm 6 mps 736 mmHg 18%
    17:00 +37°C° 0 mm 5 mps 736 mmHg 20%
    18:00 +36°C° 0 mm 4 mps 736 mmHg 22%
    19:00 +34°C° 0 mm 3 mps 736 mmHg 26%
    20:00 +33°C° 0 mm 3 mps 737 mmHg 30%
    21:00 +31°C° 0 mm 2 mps 737 mmHg 33%
    22:00 +30°C° 0 mm 2 mps 737 mmHg 33%
    23:00 +30°C° 0 mm 2 mps 737 mmHg 33%

    24 August, Saturday

    Time Temperature Precipitation Wind Pressure Humidity
    00:00 +30°C° 0 mm 3 mps 737 mmHg 32%
    01:00 +29°C° 0 mm 3 mps 737 mmHg 32%
    02:00 +29°C° 0 mm 3 mps 737 mmHg 33%
    03:00 +29°C° 0 mm 3 mps 736 mmHg 33%
    04:00 +29°C° 0 mm 3 mps 737 mmHg 35%
    05:00 +29°C° 0 mm 2 mps 737 mmHg 37%
    06:00 +29°C° 0 mm 2 mps 737 mmHg 39%
    07:00 +31°C° 0 mm 3 mps 738 mmHg 36%
    08:00 +33°C° 0 mm 4 mps 738 mmHg 33%
    09:00 +35°C° 0 mm 5 mps 738 mmHg 30%
    10:00 +36°C° 0 mm 5 mps 738 mmHg 27%
    11:00 +37°C° 0 mm 5 mps 738 mmHg 24%
    12:00 +37°C° 0 mm 5 mps 738 mmHg 22%
    13:00 +37°C° 0 mm 5 mps 738 mmHg 21%
    14:00 +37°C° 0 mm 5 mps 738 mmHg 20%
    15:00 +37°C° 0 mm 5 mps 738 mmHg 19%
    16:00 +36°C° 0 mm 5 mps 738 mmHg 21%
    17:00 +35°C° 0 mm 4 mps 738 mmHg 22%
    18:00 +34°C° 0 mm 4 mps 737 mmHg 23%
    19:00 +33°C° 0 mm 4 mps 738 mmHg 25%
    20:00 +30°C° 0 mm 3 mps 738 mmHg 27%
    21:00 +29°C° 0 mm 3 mps 739 mmHg 29%
    22:00 +29°C° 0 mm 3 mps 738 mmHg 29%
    23:00 +29°C° 0 mm 4 mps 738 mmHg 29%

    25 August, Sunday

    Time Temperature Precipitation Wind Pressure Humidity
    00:00 +28°C° 0 mm 4 mps 738 mmHg 29%
    01:00 +28°C° 0 mm 4 mps 738 mmHg 29%
    02:00 +28°C° 0 mm 4 mps 738 mmHg 29%
    03:00 +27°C° 0 mm 4 mps 738 mmHg 30%
    04:00 +27°C° 0 mm 3 mps 738 mmHg 30%
    05:00 +27°C° 0 mm 3 mps 738 mmHg 31%
    06:00 +27°C° 0 mm 3 mps 738 mmHg 31%
    07:00 +29°C° 0 mm 3 mps 739 mmHg 28%
    08:00 +31°C° 0 mm 3 mps 739 mmHg 25%
    09:00 +33°C° 0 mm 4 mps 739 mmHg 21%
    10:00 +34°C° 0 mm 4 mps 739 mmHg 20%
    11:00 +35°C° 0 mm 4 mps 739 mmHg 19%
    12:00 +36°C° 0 mm 4 mps 739 mmHg 18%
    13:00 +36°C° 0 mm 4 mps 739 mmHg 16%
    14:00 +36°C° 0 mm 5 mps 739 mmHg 15%
    15:00 +36°C° 0 mm 5 mps 738 mmHg 14%
    16:00 +35°C° 0 mm 5 mps 738 mmHg 16%
    17:00 +33°C° 0 mm 4 mps 738 mmHg 19%
    18:00 +31°C° 0 mm 3 mps 738 mmHg 21%
    19:00 +30°C° 0 mm 3 mps 738 mmHg 23%
    20:00 +29°C° 0 mm 2 mps 738 mmHg 25%
    21:00 +27°C° 0 mm 1 mps 738 mmHg 27%
    22:00 +27°C° 0 mm 1 mps 738 mmHg 27%
    23:00 +26°C° 0 mm 1 mps 738 mmHg 28%

    26 August, Monday

    Time Temperature Precipitation Wind Pressure Humidity
    00:00 +26°C° 0 mm 1 mps 738 mmHg 29%
    01:00 +25°C° 0 mm 1 mps 738 mmHg 29%
    02:00 +25°C° 0 mm 1 mps 738 mmHg 29%
    03:00 +25°C° 0 mm 1 mps 738 mmHg 29%
    04:00 +25°C° 0 mm 1 mps 738 mmHg 27%
    05:00 +26°C° 0 mm 1 mps 738 mmHg 25%
    06:00 +27°C° 0 mm 1 mps 738 mmHg 23%
    07:00 +29°C° 0 mm 1 mps 738 mmHg 21%
    08:00 +30°C° 0 mm 2 mps 739 mmHg 19%
    09:00 +32°C° 0 mm 2 mps 739 mmHg 17%
    10:00 +34°C° 0 mm 3 mps 739 mmHg 17%
    11:00 +35°C° 0 mm 4 mps 739 mmHg 17%
    12:00 +36°C° 0 mm 4 mps 739 mmHg 16%
    13:00 +35°C° 0 mm 6 mps 738 mmHg 18%
    14:00 +35°C° 0 mm 7 mps 738 mmHg 20%
    15:00 +34°C° 0 mm 9 mps 738 mmHg 21%
    16:00 +33°C° 0 mm 9 mps 738 mmHg 23%
    17:00 +32°C° 0 mm 10 mps 739 mmHg 25%
    18:00 +31°C° 0 mm 10 mps 739 mmHg 27%
    19:00 +29°C° 0 mm 10 mps 739 mmHg 28%
    20:00 +29°C° 0 mm 10 mps 740 mmHg 29%
    21:00 +28°C° 0 mm 10 mps 740 mmHg 30%
    22:00 +28°C° 0 mm 9 mps 740 mmHg 29%
    23:00 +28°C° 0 mm 8 mps 740 mmHg 27%
    Show more